Location: Brantley
(31.5822°N, 86.2569°W)
Time: 07:06:01
(UTC+00:00)

Vanguard 3 - Pass Details

Date: 22 February 2026
Orbit: 507 x 3205 km, 33.4° (Epoch: 9 March)

Event Time Altitude Azimuth Distance (km) Brightness Sun altitude
Rises 00:27:56 0° 282° (WNW) 4,638 12.7 -11.6°
Reaches altitude 10° 00:31:44 10° 282° (WNW) 3,217 11.5 -12.4°
Maximum altitude 00:39:04 86° 196° (SSW) 817 7.1 -13.9°
Enters shadow 00:42:11 21° 106° (ESE) 1,484 7.9 -14.6°
Drops below altitude 10° 00:43:31 10° 106° (ESE) 1,992 - -14.9°
Sets 00:45:24 0° 105° (ESE) 2,762 - -15.3°
